CAPE
621 768 836 1210 1031 265 395 199 329 323 428 252 161 191 702 513 445 572 518 862 935 869 1187 1510 2553 2676 2403 2454 2582 2540 2469 2449 2425 2351 2132 2066 1390 1486 1798 1953 1937 1896 1782 1595 1551 1672 1876 1471 1510
675 1056 1198 1305 218 61 246 194 101 283 127 50 40 164 307 250 726 741 629 936 764 891 948 1200 2377 2385 2353 2698 2740 2519 2276 1910 2374 2272 2127 1966 1503 1439 1344 1256 1248 1443 1455 1558 1646 1632 1883 1788 1571
1020 1411 2002 1248 40 11 377 275 173 105 30 320 71 28 307 432 438 828 558 658 704 592 883 1683 2500 2287 2587 2575 2702 2581 2225 1882 1783 1299 1286 1174 1497 1534 1424 1420 1356 1263 1314 1265 1320 1557 1681 1789 1610
918 1817 1592 973 336 267 335 251 166 67 22 34 77 228 113 73 329 789 454 409 401 632 993 2305 2629 1959 2319 2021 1900 1262 852 1263 632 268 114 38 326 86 215 955 1102 990 1117 1199 1530 1364 1478 1506 1321
558 1131 323 129 259 342 263 183 260 207 22 123 28 115 284 190 476 536 452 405 394 535 970 1832 2618 2438 2266 2298 2187 1999 1034 722 523 355 261 286 217 87 393 554 842 829 1068 1286 1411 1586 1508 1434 1534
915 1040 620 149 228 350 249 148 178 251 82 35 58 352 631 394 436 618 431 268 371 513 419 1571 1673 2177 1850 1927 1311 1155 713 1121 867 364 57 113 183 199 229 141 507 891 1053 1284 1572 1691 1837 1819 1426
616 782 193 219 123 168 186 224 242 125 195 265 194 617 491 594 449 684 617 322 397 490 1208 767 550 1624 1282 822 567 360 163 875 611 124 69 38 318 435 248 319 442 1163 1272 1307 1678 1633 1325 1499 1335
456 156 45 74 112 136 47 0 117 53 409 308 186 695 374 640 788 940 782 378 549 628 777 805 581 1320 1191 354 207 197 229 240 71 81 237 202 21 135 194 202 718 1065 1356 1303 1245 1436 1508 1552 1300
152 147 107 89 102 122 144 22 32 8 371 96 516 354 326 532 845 823 778 637 792 924 976 592 645 1074 1560 568 519 396 216 278 20 43 162 138 333 482 184 240 559 1135 1535 1079 1055 1495 1608 1581 1658
314 168 43 39 43 63 119 60 100 200 342 372 383 768 562 674 923 759 714 738 719 1099 1046 764 1134 822 665 110 1308 1234 428 977 221 137 40 180 173 425 489 578 759 1367 1734 1466 1179 1441 1693 1698 1222
61 111 20 8 0 8 52 224 67 299 434 335 646 195 872 728 726 694 674 672 773 641 980 1383 1463 2166 573 743 739 1205 674 512 118 92 92 219 98 57 245 448 954 906 1301 801 733 332 848 1147 1317
23 15 0 0 0 1 141 106 248 171 365 299 120 476 235 969 666 826 793 624 710 848 905 910 1325 1731 1537 1721 1345 856 217 118 93 80 94 423 33 99 503 513 363 1093 712 386 127 99 596 1629 1788
59 0 0 0 0 76 101 175 220 238 410 346 654 737 764 737 481 561 504 785 668 731 663 642 1537 1728 1525 1848 1639 936 514 473 178 15 161 267 230 332 738 594 341 1281 983 469 689 446 931 2082 1495
6 0 11 0 0 21 8 51 192 438 525 420 833 767 839 533 637 780 515 814 587 881 1087 743 1301 1981 1827 1682 1617 1372 1051 693 902 594 517 348 345 982 427 892 975 1458 1805 284 365 988 2127 2359 1437
0 8 44 51 0 20 3 73 256 560 449 542 654 854 572 597 717 707 557 663 823 768 1045 1201 1485 1384 1642 1802 1734 1348 1174 792 500 823 654 365 638 684 1065 770 1902 1462 2254 2244 1276 601 673 2169 1583
17 24 45 88 0 11 0 653 842 509 571 589 1025 763 830 763 792 701 691 727 877 826 1113 1515 1065 994 1401 1344 2174 1454 1043 484 1806 900 572 317 739 355 1458 1690 696 2334 2767 1561 2134 294 729 1138 860
29 6 74 54 0 0 6 167 228 495 577 677 953 847 700 630 694 868 739 840 842 1430 1403 1536 1726 1066 1597 1890 2254 1634 1303 856 834 1621 618 893 522 632 1995 1510 1967 2610 2176 63 273 882 691 647 500
47 26 90 44 9 1 248 227 220 634 668 857 1099 823 503 514 418 819 747 882 998 1379 1816 1653 1520 1670 1980 1769 1880 1423 1353 1179 1273 1307 1064 680 593 1313 2202 1760 487 2080 2656 1399 1757 2793 2195 729 387
36 65 7 12 0 2 333 401 498 621 1049 841 1071 938 806 368 484 376 895 911 1292 1500 1646 1585 1514 1795 2295 1379 1263 1165 1088 760 608 1005 260 1392 1204 1355 2277 1730 2044 2911 2625 567 161 2472 671 598 1513
21 17 9 0 1 100 278 342 503 654 978 875 1091 475 238 733 788 693 742 984 1107 1753 2059 2255 2369 2923 2218 2433 1323 1463 1451 1489 480 1140 1350 1334 1286 1781 1983 2058 909 2656 2598 1742 2364 2278 1808 956 2512
9 9 3 0 37 114 258 63 171 353 796 982 1118 1168 775 955 836 714 863 790 981 1805 2186 2754 2640 2877 2492 1809 1570 1579 1838 1551 1101 1145 757 417 1153 1925 2483 880 4 2695 2563 1738 2527 2373 1338 557 1394
6 4 0 0 3 146 17 0 8 136 723 976 947 1460 793 1300 979 728 712 847 964 1698 2086 3229 3075 2765 2470 2306 1733 1563 1152 945 949 1143 1085 1034 1595 2057 2288 2877 2296 2854 2303 526 1841 2662 2361 2420 1566
5 0 0 0 0 52 59 0 118 360 804 777 853 809 1307 1242 1049 937 929 630 966 1780 1949 2894 3270 3195 3098 2672 2379 1958 2158 1652 1219 1115 1509 1518 2134 2433 2278 2717 2952 3094 2665 2265 2683 2852 2585 2497 1991
0 0 0 0 0 29 77 268 569 458 521 420 522 583 813 696 1213 1170 1256 980 1079 1385 1629 2461 3555 3381 3240 2647 2441 2336 2200 1764 1042 1252 1219 1297 1611 2116 2897 2510 2882 3551 2876 2898 3355 3481 3045 2824 2838
0 0 2 49 26 11 146 408 472 403 482 429 555 601 1021 1069 734 1128 720 1527 1672 1972 1888 2580 3559 3423 3316 2964 2522 2463 2253 2161 1506 1848 938 1427 1621 1451 1976 3133 3236 2906 3551 3478 3257 3413 3480 3181 2880
7 2 13 229 30 23 224 500 374 479 714 731 578 736 850 1135 918 995 1048 1166 2134 2047 2453 2644 3461 3650 3012 2823 2705 2352 2691 1858 1586 1760 1276 1121 1987 778 2329 2737 2049 3062 3379 3316 3366 3293 2866 2744 3352
2 0 1 2 17 27 188 147 436 537 809 929 1087 1132 1204 1296 1019 998 1259 1391 1946 2213 2627 2979 3679 3557 3184 2743 2695 2481 2055 2220 1954 2333 2469 2704 969 439 1857 2172 2534 2938 3030 2770 3247 2947 3184 3010 2847
0 0 7 45 103 153 19 231 445 647 940 1047 1244 1382 1525 1610 1655 1649 1634 1462 1762 1769 2381 2689 3506 3394 3317 2895 2579 2265 2155 2110 2285 2699 2294 2580 2382 1089 1302 1778 2092 2800 2868 3415 3285 2871 3036 3021 2675
0 0 0 13 65 42 77 341 425 847 806 906 1040 1149 1296 1441 1594 1712 1863 1503 1618 1681 2167 2643 3152 3289 3399 3112 2524 2391 2063 1859 2111 2575 2779 2566 3137 1579 578 368 246 1929 3179 2943 3175 2848 2871 2536 3142
34 60 23 81 191 37 89 645 596 565 720 853 802 763 940 1184 1298 1577 1969 2380 3169 3241 2970 2598 3044 3029 3213 3315 3324 2595 2300 2024 1708 1905 2541 2705 3263 3140 836 381 0 1687 2929 2914 2808 2833 1887 2621 2345
CIN
-102 -71 -65 -7 -1 -59 -21 -12 -3 -11 -2 -65 -20 -35 -50 -92 -47 -17 -68 -1 -38 -44 -31 -4 -0 -0 -0 -0 -0 -0 -0 -0 -0 -0 -0 -0 -0 -0 -0 -0 -0 -0 -0 -0 -0 -0 -0 -0 -0
-103 -71 -11 -7 -33 -2 -39 -2 -1 -1 -2 -47 -2 -14 -2 -17 -0 -3 -9 -0 -29 -32 -21 -9 -0 -0 -0 -0 -0 -0 -0 -0 -0 -0 -0 -0 -0 -0 -0 -0 -0 -0 -0 -0 -0 -0 -0 -0 -0
-164 -9 -1 -27 -17 -0 -27 -8 -1 -1 -9 -20 -58 -2 -2 -3 -6 -2 -11 -1 -22 -24 -13 -0 -0 -0 -0 -0 -0 -0 -0 -0 -0 -0 -0 -0 -0 -0 -0 -0 -0 -0 -0 -0 -0 -0 -0 -0 -0
-75 -0 -1 -1 -14 -3 -53 -4 -0 -1 -1 -44 -19 -20 -25 -43 -0 -8 -24 -44 -24 -22 -13 -0 -0 -0 -0 -0 -0 -0 -4 -0 -7 -13 -47 -82 -32 -37 -21 -11 -3 -1 -0 -0 -0 -0 -0 -0 -0
-39 -1 -62 -10 -4 -4 -63 -2 -0 -2 -2 -20 -27 -105 -8 -20 -2 -7 -17 -17 -14 -33 -14 -0 -0 -0 -0 -0 -0 -0 -0 -3 -8 -11 -18 -23 -35 -64 -19 -13 -6 -6 -2 -0 -1 -0 -0 -0 -0
-55 -19 -11 -6 -17 -3 -1 -1 -0 -2 -10 -2 -28 -26 -0 -18 -6 -24 -14 -13 -7 -26 -33 -0 -0 -0 -0 -0 -1 -0 -2 -0 -1 -25 -69 -47 -36 -39 -20 -28 -8 -6 -1 -1 -0 -0 -0 -0 -0
-9 -12 -41 -13 -19 -3 -0 -1 -0 -28 -10 -15 -9 -52 -137 -2 -2 -15 -8 -20 -0 -12 -3 -12 -32 -0 -0 -11 -31 -30 -18 -0 -3 -26 -35 -47 -13 -23 -21 -23 -8 -1 -0 -0 -0 -0 -0 -0 -1
-47 -259 -91 -12 -42 -25 -0 -0 -6 -6 -49 -64 -17 -69 -24 -87 -30 -14 -0 -30 -2 -6 -7 -14 -32 -0 -2 -46 -66 -41 -36 -9 -41 -27 -11 -91 -91 -65 -25 -21 -13 -1 -0 -0 -0 -0 -2 -2 -1
-25 -46 -42 -12 -5 -6 -10 -0 -6 -3 -17 -45 -15 -15 -185 -41 -13 -17 -16 -9 -10 -2 -6 -7 -33 -3 -0 -22 -4 -17 -61 -3 -61 -64 -15 -22 -46 -23 -16 -17 -2 -1 -0 -3 -1 -0 -0 -8 -4
-136 -154 -2 -0 -0 -0 -15 -3 -3 -6 -8 -5 -5 -22 -19 -7 -13 -22 -28 -7 -0 -6 -16 -12 -5 -12 -30 -83 -1 -0 -12 -0 -30 -32 -88 -50 -42 -8 -7 -18 -15 -5 -9 -5 -6 -9 -9 -8 -75
-0 -1 -0 -0 -0 -1 -1 -0 -5 -1 -14 -89 -51 -61 -26 -1 -22 -32 -13 -8 -0 -27 -15 -3 -3 -0 -39 -5 -5 -0 -2 -0 -23 -26 -58 -34 -62 -75 -84 -39 -9 -46 -38 -30 -83 -120 -86 -55 -28
-0 -1 -0 -0 -0 -0 -1 -0 -0 -2 -1 -21 -35 -194 -10 -35 -9 -35 -10 -7 -10 -4 -8 -20 -10 -5 -2 -4 -2 -0 -57 -65 -55 -63 -42 -15 -90 -59 -22 -49 -71 -46 -43 -110 -186 -201 -11 -46 -13
-0 -0 -0 -0 -0 -12 -6 -1 -0 -1 -3 -3 -28 -86 -55 -8 -12 -5 -4 -9 -11 -15 -38 -30 -4 -4 -12 -7 -5 -8 -16 -11 -36 -134 -37 -23 -47 -47 -32 -61 -88 -12 -71 -102 -70 -19 -52 -23 -30
-3 -0 -3 -0 -0 -19 -2 -37 -4 -6 -0 -0 -16 -4 -4 -0 -4 -10 -21 -4 -30 -5 -5 -47 -9 -0 -3 -7 -6 -10 -8 -12 -8 -13 -21 -36 -61 -29 -96 -55 -21 -27 -16 -46 -93 -124 -24 -36 -40
-0 -2 -6 -2 -0 -12 -8 -134 -56 -10 -8 -1 -1 -0 -22 -3 -8 -27 -40 -12 -8 -35 -35 -17 -9 -2 -2 -3 -5 -17 -18 -0 -17 -15 -15 -34 -33 -48 -56 -55 -16 -48 -40 -51 -82 -13 -9 -30 -36
-2 -34 -23 -16 -0 -7 -0 -121 -31 -15 -23 -1 -22 -132 -10 -1 -16 -11 -27 -25 -25 -25 -29 -13 -6 -0 -7 -2 -2 -16 -30 -5 -5 -21 -26 -46 -28 -83 -25 -21 -48 -13 -23 -73 -35 -227 -183 -52 -122
-1 -42 -10 -2 -0 -0 -8 -14 -2 -7 -9 -2 -49 -94 -9 -1 -17 -18 -27 -40 -33 -11 -24 -10 -7 -25 -9 -3 -1 -12 -7 -22 -14 -4 -30 -15 -39 -52 -14 -33 -48 -20 -60 -170 -131 -83 -116 -109 -41
-20 -3 -34 -0 -4 -5 -1 -0 -10 -3 -9 -4 -19 -4 -10 -5 -4 -16 -17 -10 -26 -27 -26 -31 -34 -44 -18 -15 -7 -20 -12 -5 -6 -12 -13 -18 -34 -32 -11 -30 -43 -46 -21 -55 -62 -19 -36 -77 -19
-28 -12 -4 -2 -0 -1 -10 -27 -8 -1 -13 -0 -8 -12 -10 -16 -16 -7 -11 -7 -20 -28 -39 -47 -40 -26 -5 -31 -26 -16 -8 -5 -11 -13 -59 -2 -12 -29 -12 -24 -32 -7 -24 -17 -230 -23 -21 -217 -31
-1 -2 -4 -0 -0 -6 -35 -43 -12 -1 -3 -6 -263 -110 -58 -77 -5 -12 -9 -6 -18 -22 -22 -30 -14 -5 -13 -9 -37 -16 -16 -9 -20 -1 -3 -8 -28 -24 -7 -29 -114 -16 -18 -70 -24 -36 -24 -41 -37
-15 -1 -2 -0 -11 -69 -124 -281 -37 -27 -15 -12 -9 -119 -61 -43 -9 -32 -0 -8 -9 -11 -5 -17 -26 -5 -6 -18 -23 -10 -2 -12 -1 -8 -12 -69 -33 -2 -2 -63 -24 -30 -35 -50 -33 -29 -109 -124 -72
-5 -2 -0 -0 -1 -28 -70 -3 -1 -23 -23 -25 -16 -28 -263 -5 -18 -35 -10 -9 -13 -10 -6 -3 -12 -11 -2 -2 -14 -9 -4 -0 -0 -13 -4 -14 -18 -5 -6 -5 -26 -16 -20 -155 -62 -22 -37 -30 -33
-1 -0 -0 -0 -0 -2 -47 -0 -48 -6 -3 -16 -17 -9 -65 -11 -25 -44 -73 -54 -7 -9 -16 -4 -15 -9 -1 -0 -1 -7 -3 -11 -7 -2 -9 -15 -7 -4 -5 -7 -9 -4 -18 -19 -6 -5 -11 -35 -32
-0 -0 -0 -0 -0 -15 -10 -19 -58 -0 -0 -6 -17 -18 -9 -13 -12 -24 -20 -129 -10 -27 -16 -6 -29 -10 -0 -0 -0 -2 -2 -13 -27 -33 -8 -19 -4 -6 -6 -10 -13 -2 -7 -9 -7 -3 -4 -9 -26
-0 -0 -14 -35 -19 -21 -0 -0 -0 -1 -13 -11 -7 -26 -28 -32 -56 -20 -44 -8 -31 -42 -44 -23 -16 -6 -0 -0 -1 -1 -4 -3 -27 -18 -16 -8 -4 -13 -13 -9 -8 -4 -2 -5 -8 -1 -3 -5 -10
-29 -0 -67 -6 -78 -4 -43 -0 -0 -0 -0 -23 -19 -10 -3 -17 -52 -12 -34 -29 -23 -33 -12 -4 -13 -3 -9 -3 -2 -5 -1 -4 -21 -11 -23 -37 -7 -9 -15 -10 -22 -4 -6 -7 -8 -8 -9 -12 -3
-6 -0 -0 -2 -19 -8 -84 -316 -1 -0 -9 -17 -29 -32 -23 -12 -4 -4 -12 -11 -11 -8 -13 -5 -15 -2 -2 -3 -1 -3 -9 -3 -4 -17 -8 -8 -13 -108 -13 -42 -8 -9 -8 -12 -10 -5 -7 -7 -8
-0 -7 -4 -1 -93 -20 -25 -25 -17 -6 -20 -17 -30 -46 -52 -54 -55 -41 -17 -10 -13 -6 -10 -14 -7 -8 -0 -0 -5 -9 -7 -6 -13 -20 -17 -12 -24 -66 -19 -29 -37 -9 -10 -6 -5 -11 -16 -14 -16
-0 -0 -11 -3 -10 -52 -4 -5 -47 -13 -24 -27 -49 -62 -81 -86 -86 -78 -55 -28 -9 -4 -4 -22 -14 -12 -0 -0 -8 -9 -19 -15 -8 -2 -6 -15 -9 -46 -67 -17 -32 -9 -8 -12 -10 -20 -6 -8 -7
-7 -1 -4 -5 -5 -113 -28 -21 -4 -13 -1 -21 -77 -114 -139 -140 -114 -105 -96 -67 -45 -27 -26 -41 -28 -25 -11 -2 -2 -3 -13 -14 -13 -11 -3 -8 -6 -9 -18 -229 -0 -31 -6 -10 -7 -7 -14 -14 -19
Wind_Speed
17 14 9 12 8 11 11 7 9 10 5 14 3 15 27 18 16 6 17 23 34 29 27 21 23 22 22 24 24 22 20 18 15 14 12 11 10 8 6 5 4 3 4 5 7 9 9 9 10
15 17 5 9 19 nan 16 20 17 13 8 nan nan 21 30 24 20 25 15 29 29 29 22 23 24 21 25 26 26 24 23 21 17 17 17 12 10 5 5 3 2 2 1 4 5 7 9 10 12
16 8 2 1 nan nan 18 11 12 10 nan 15 nan nan 15 19 21 18 26 25 27 27 26 23 23 24 26 29 26 29 27 22 24 21 24 18 13 5 2 5 3 3 4 4 5 6 8 10 10
9 4 7 3 16 26 1 4 19 nan nan nan nan 14 19 nan 19 27 27 25 29 28 27 22 23 25 26 29 31 26 28 23 31 23 20 nan 13 nan 5 7 3 7 6 6 5 7 5 9 12
5 14 12 5 10 1 14 9 9 12 nan 18 nan 15 20 21 25 30 26 25 28 30 25 22 26 25 23 24 23 23 27 25 25 14 11 7 11 nan 4 7 7 6 7 6 7 7 8 12 14
8 6 5 5 7 7 6 6 7 14 nan nan nan 16 24 21 27 29 29 25 21 28 27 23 26 28 26 27 27 28 25 24 20 18 nan 8 9 8 8 9 9 8 7 10 10 8 12 15 18
9 9 12 23 14 8 6 2 6 5 10 14 13 19 13 11 18 29 29 26 25 24 26 23 21 21 23 26 29 30 27 27 22 15 nan nan 11 18 9 13 10 11 9 10 9 8 9 13 19
17 15 nan nan 11 8 nan nan 6 nan 13 14 7 30 20 11 37 24 28 27 20 22 22 23 17 15 14 16 18 21 22 13 nan nan 9 10 nan 13 14 14 13 9 9 9 9 10 15 17 18
15 16 17 nan 14 9 11 nan nan nan 25 nan 22 26 28 21 25 31 26 25 21 14 20 21 17 13 13 9 12 16 15 15 nan nan 4 1 7 10 10 10 8 10 12 14 14 15 17 13 23
26 17 nan nan nan nan 5 nan 6 6 18 18 15 48 35 33 34 30 25 21 19 18 12 17 12 12 15 9 12 13 12 12 16 15 nan 5 8 7 12 12 11 16 16 16 14 17 18 20 18
nan 12 nan nan nan nan nan 5 nan 10 17 18 25 9 17 31 22 26 21 21 24 21 15 14 14 7 13 9 10 10 15 17 16 nan nan 7 nan nan 9 11 4 9 15 3 6 12 15 22 22
nan nan nan nan nan nan 6 5 9 11 19 26 23 27 23 13 30 27 24 25 29 26 20 14 16 8 7 9 12 14 14 10 nan nan nan 6 nan nan 9 6 5 6 5 4 8 nan 22 25 17
nan nan nan nan nan nan 10 10 12 12 13 25 33 25 33 20 24 27 27 26 21 22 20 13 15 8 6 11 11 14 13 14 11 nan 2 4 7 9 12 10 10 3 2 11 13 12 20 18 16
nan nan nan nan nan nan nan nan 13 20 23 19 33 22 21 23 26 25 25 22 19 20 21 13 13 12 9 10 11 13 13 14 14 10 10 3 8 14 15 12 6 2 2 9 11 6 14 11 15
nan nan nan nan nan nan nan nan 9 21 20 23 18 22 11 20 33 26 24 22 21 16 19 15 9 13 10 11 13 12 15 15 12 12 10 6 11 13 13 13 9 10 9 3 9 7 13 10 15
nan nan nan nan nan nan nan 41 35 25 23 20 26 25 5 20 22 24 22 22 19 13 16 16 9 9 12 10 12 11 10 12 17 12 10 1 7 9 10 13 9 8 9 8 6 7 9 9 10
nan nan nan nan nan nan nan 12 24 32 29 23 30 30 18 17 28 18 21 18 18 16 13 10 8 12 13 12 12 9 14 14 17 9 9 7 11 9 10 10 11 10 8 nan 12 12 4 4 2
nan nan nan nan nan nan 19 10 7 24 25 28 25 15 15 13 9 23 14 15 19 15 14 11 6 11 11 9 11 8 12 13 10 7 8 10 14 10 9 9 8 8 11 8 11 10 8 8 12
nan nan nan nan nan nan 17 10 4 16 20 24 33 23 7 6 10 9 16 15 19 16 16 12 7 11 9 9 8 7 10 8 5 8 11 3 7 6 9 15 11 10 11 12 12 5 6 9 4
nan nan nan nan nan 14 14 8 28 11 16 22 40 35 9 27 13 10 11 13 19 19 16 13 10 10 8 5 8 6 5 6 4 3 6 2 6 11 11 12 12 6 10 4 3 9 12 10 10
nan nan nan nan nan 29 19 nan 33 39 17 20 28 41 26 37 16 10 12 15 14 16 15 13 10 10 8 3 7 4 6 6 6 3 4 12 6 6 9 11 nan 7 9 12 10 13 13 8 9
nan nan nan nan nan 26 nan nan nan 53 16 20 18 32 51 27 23 12 9 10 10 12 12 11 11 10 8 5 7 4 6 6 7 7 5 4 5 4 6 7 2 5 8 18 8 13 11 10 9
nan nan nan nan nan nan nan nan 28 33 24 19 19 19 38 27 31 17 14 22 17 12 10 11 11 8 7 8 6 2 5 5 4 3 4 2 1 3 8 9 6 5 3 6 7 10 11 7 7
nan nan nan nan nan nan nan 24 8 9 15 16 17 16 17 17 22 23 23 34 13 9 9 11 15 11 9 9 8 3 5 8 7 7 3 5 3 5 8 12 11 9 8 8 8 10 9 13 15
nan nan nan nan nan nan 14 24 21 25 23 19 16 14 17 14 16 14 11 8 9 12 11 10 14 13 11 9 9 7 3 6 5 7 7 10 10 7 5 12 14 11 8 6 4 9 12 12 12
nan nan nan 22 nan nan 25 23 19 27 30 23 19 23 21 19 18 18 18 15 15 16 14 12 14 12 11 10 8 7 5 4 4 7 6 5 9 12 15 13 15 12 11 7 8 9 9 10 9
nan nan nan nan nan nan 21 29 24 20 21 27 24 19 13 12 17 28 23 20 20 18 15 16 19 15 14 13 10 8 8 6 6 7 7 10 13 11 7 15 16 16 13 7 10 10 11 11 13
nan nan nan nan 16 20 nan 22 18 18 27 31 29 26 21 16 13 9 5 12 23 20 18 15 16 16 16 12 13 13 11 8 3 10 10 11 16 10 27 25 13 17 14 15 11 11 9 11 13
nan nan nan nan nan nan nan 30 28 36 36 34 35 37 31 23 21 18 13 10 7 19 19 19 16 16 14 14 14 15 15 12 8 7 14 12 18 23 28 19 15 16 17 16 14 10 14 13 11
nan nan nan nan 11 nan nan 23 33 27 39 39 38 35 33 32 29 29 26 21 20 21 18 24 24 21 17 13 16 15 16 14 14 11 14 16 19 16 22 18 nan 6 13 15 13 13 11 16 12
Wind_Direction
87 74 87 118 133 118 61 12 279 216 256 312 90 258 276 295 269 275 27 307 300 307 307 306 303 301 302 302 305 311 297 293 289 283 283 292 302 300 281 231 244 248 261 270 284 291 293 285 294
92 81 120 122 266 nan 127 213 242 283 269 nan nan 250 276 268 273 291 294 304 301 306 311 305 301 296 300 306 301 300 295 289 288 286 289 277 284 296 298 183 172 167 263 323 317 315 308 305 300
95 92 46 351 nan nan 154 252 266 284 nan 286 nan nan 255 290 287 289 301 309 305 313 304 304 309 292 300 302 296 296 292 279 278 279 281 241 256 233 220 143 82 70 55 23 352 325 323 310 306
119 140 107 240 5 359 111 245 266 nan nan nan nan 240 263 nan 289 294 308 305 309 303 296 310 304 294 294 288 298 290 299 290 280 271 292 nan 193 nan 179 146 128 74 59 32 6 331 332 322 336
103 299 118 190 245 156 354 241 247 280 nan 297 nan 302 282 269 276 299 302 314 312 298 302 308 297 295 292 299 307 289 293 296 289 276 296 235 217 nan 170 156 144 72 53 31 21 352 335 332 322
174 248 346 266 350 310 241 266 255 251 nan nan nan 257 279 294 307 306 307 312 305 304 307 301 298 295 292 293 295 294 285 289 291 272 nan 203 169 139 122 126 121 99 68 44 23 12 339 351 345
61 176 150 260 244 220 299 333 259 289 285 219 238 272 226 288 309 312 321 320 318 310 302 307 308 301 298 296 291 293 281 278 280 262 nan nan 199 166 116 114 121 102 94 57 51 22 31 9 14
226 216 nan nan 255 239 nan nan 278 nan 279 264 301 287 287 72 301 322 313 309 305 309 309 308 310 308 309 311 309 312 283 277 nan nan 264 216 nan 146 129 111 104 104 108 63 70 47 47 40 40
249 164 73 nan 248 230 189 nan nan nan 300 nan 292 313 320 335 320 314 310 309 312 315 307 317 315 314 303 308 320 316 296 267 nan nan 132 194 158 146 135 103 113 71 72 82 72 55 50 60 56
298 20 nan nan nan nan 346 nan 313 339 267 292 232 295 320 336 321 317 313 316 333 318 307 305 306 315 307 341 316 317 308 242 240 216 nan 220 211 177 181 113 97 77 72 72 78 79 66 57 53
nan 266 nan nan nan nan nan 323 nan 297 302 301 279 182 301 302 300 315 318 331 337 329 321 308 312 309 309 335 327 317 307 295 229 nan nan 220 nan nan 169 175 125 102 72 132 160 115 98 74 58
nan nan nan nan nan nan 57 10 11 346 310 322 303 315 299 354 321 317 314 331 321 333 324 312 306 307 315 309 309 317 312 313 nan nan nan 241 nan nan 196 179 134 79 87 266 180 nan 85 73 63
nan nan nan nan nan nan 48 59 36 23 335 317 327 333 342 321 315 313 307 314 319 311 317 328 296 296 288 294 311 315 322 328 333 nan 202 257 204 182 167 170 148 216 333 223 92 64 78 70 69
nan nan nan nan nan nan nan nan 121 15 350 346 339 320 306 308 312 302 312 314 316 326 313 284 299 297 294 299 320 320 323 325 310 290 309 293 214 174 166 162 149 264 110 240 103 108 76 78 80
nan nan nan nan nan nan nan nan 45 26 357 354 338 317 292 306 310 307 310 306 312 307 311 314 287 303 309 313 317 319 314 325 307 278 280 291 164 166 159 153 178 175 227 237 69 141 135 135 130
nan nan nan nan nan nan nan 5 16 347 4 7 309 238 36 297 311 310 317 318 317 316 314 320 322 316 304 295 293 303 317 310 297 275 252 233 180 170 159 164 202 169 237 207 164 60 145 182 131
nan nan nan nan nan nan nan 56 12 358 0 3 335 353 325 291 308 312 323 323 328 315 303 322 336 330 313 308 298 305 311 307 301 263 231 200 182 162 173 178 209 167 225 nan 160 176 187 143 115
nan nan nan nan nan nan 12 320 311 357 9 356 341 331 312 326 286 310 335 340 319 318 322 331 305 298 295 297 303 297 309 321 282 242 201 195 173 141 169 176 222 138 160 172 183 205 140 325 108
nan nan nan nan nan nan 238 182 41 32 10 1 356 291 217 236 324 328 327 323 326 328 338 337 323 324 303 302 297 297 336 349 337 254 227 211 222 174 188 189 194 203 154 198 195 173 238 171 140
nan nan nan nan nan 258 252 234 140 84 17 11 332 323 354 91 1 332 340 337 338 342 345 331 349 331 321 296 295 296 331 314 9 256 251 214 157 175 205 217 167 220 173 246 187 196 240 211 177
nan nan nan nan nan 254 192 nan 142 117 50 17 356 352 355 44 3 329 348 351 350 340 351 347 340 357 337 327 277 278 295 320 318 327 35 123 123 192 182 248 nan 173 181 165 246 266 263 231 204
nan nan nan nan nan 314 nan nan nan 99 23 20 13 342 13 41 5 1 4 6 8 338 339 357 356 7 343 324 271 280 307 329 334 315 345 78 96 258 261 202 205 197 207 246 113 290 291 265 233
nan nan nan nan nan nan nan nan 359 49 348 357 4 12 12 17 12 8 277 134 27 328 342 350 347 2 347 345 324 249 275 275 313 316 296 352 358 242 291 284 278 273 207 199 231 238 272 267 193
nan nan nan nan nan nan nan 316 59 348 330 321 337 350 21 359 358 14 8 13 350 337 352 337 329 350 352 351 343 356 274 281 271 277 276 251 238 211 217 264 262 256 243 223 208 227 229 233 196
nan nan nan nan nan nan 331 289 307 319 316 297 315 323 338 348 40 7 31 350 343 339 23 339 331 341 352 358 349 344 24 311 328 311 314 284 291 300 272 252 250 250 250 231 242 244 220 227 236
nan nan nan 315 nan nan 201 259 285 302 310 308 304 321 330 342 359 23 9 22 357 18 15 359 337 339 339 344 349 338 358 311 318 331 303 271 277 270 292 271 265 240 240 233 261 264 254 232 238
nan nan nan nan nan nan 285 301 293 305 286 307 307 288 276 269 337 360 359 2 4 3 360 8 356 355 347 357 348 347 334 347 335 317 281 262 266 248 319 270 267 258 248 247 257 249 251 236 241
nan nan nan nan 205 250 nan 253 177 301 301 307 309 304 290 276 265 257 264 349 347 353 355 359 346 355 8 357 336 332 331 342 339 300 303 288 279 281 251 221 221 251 250 251 255 262 268 253 239
nan nan nan nan nan nan nan 317 316 300 306 307 304 302 298 290 277 273 268 263 275 331 331 335 339 342 354 352 339 344 335 337 328 296 297 298 286 270 279 244 221 237 244 246 252 244 248 230 219
nan nan nan nan 217 nan nan 243 258 286 293 292 291 289 284 286 281 279 273 263 252 248 251 316 319 324 329 334 329 336 326 339 350 335 305 295 285 277 280 284 nan 252 249 256 255 257 241 253 243